Year,Month,Day,Hour,Minute,Value (Times are PST for insolation in W/m^2)
2018,11,06,00,00,0.00
2018,11,06,00,01,0.00
2018,11,06,00,02,0.00
2018,11,06,00,03,0.00
2018,11,06,00,04,0.00
2018,11,06,00,05,0.00
2018,11,06,00,06,0.00
2018,11,06,00,07,0.00
2018,11,06,00,08,0.00
2018,11,06,00,09,0.00
2018,11,06,00,10,0.00
2018,11,06,00,11,0.00
2018,11,06,00,12,0.00
2018,11,06,00,13,0.00
2018,11,06,00,14,0.00
2018,11,06,00,15,0.00
2018,11,06,00,16,0.00
2018,11,06,00,17,0.00
2018,11,06,00,18,0.00
2018,11,06,00,19,0.00
2018,11,06,00,20,0.00
2018,11,06,00,21,0.00
2018,11,06,00,22,0.00
2018,11,06,00,23,0.00
2018,11,06,00,24,0.00
2018,11,06,00,25,0.00
2018,11,06,00,26,0.00
2018,11,06,00,27,0.00
2018,11,06,00,28,0.00
2018,11,06,00,29,0.00
2018,11,06,00,30,0.00
2018,11,06,00,31,0.00
2018,11,06,00,32,0.00
2018,11,06,00,33,0.00
2018,11,06,00,34,0.00
2018,11,06,00,35,0.00
2018,11,06,00,36,0.00
2018,11,06,00,37,0.00
2018,11,06,00,38,0.00
2018,11,06,00,39,0.00
2018,11,06,00,40,0.00
2018,11,06,00,41,0.00
2018,11,06,00,42,0.00
2018,11,06,00,43,0.00
2018,11,06,00,44,0.00
2018,11,06,00,45,0.00
2018,11,06,00,46,0.00
2018,11,06,00,47,0.00
2018,11,06,00,48,0.00
2018,11,06,00,49,0.00
2018,11,06,00,50,0.00
2018,11,06,00,51,0.00
2018,11,06,00,52,0.00
2018,11,06,00,53,0.00
2018,11,06,00,54,0.00
2018,11,06,00,55,0.00
2018,11,06,00,56,0.00
2018,11,06,00,57,0.00
2018,11,06,00,58,0.00
2018,11,06,00,59,0.00
2018,11,06,01,00,0.00
2018,11,06,01,01,0.00
2018,11,06,01,02,0.00
2018,11,06,01,03,0.00
2018,11,06,01,04,0.00
2018,11,06,01,05,0.00
2018,11,06,01,06,0.00
2018,11,06,01,07,0.00
2018,11,06,01,08,0.00
2018,11,06,01,09,0.00
2018,11,06,01,10,0.00
2018,11,06,01,11,0.00
2018,11,06,01,12,0.00
2018,11,06,01,13,0.00
2018,11,06,01,14,0.00
2018,11,06,01,15,0.00
2018,11,06,01,16,0.00
2018,11,06,01,17,0.00
2018,11,06,01,18,0.00
2018,11,06,01,19,0.00
2018,11,06,01,20,0.00
2018,11,06,01,21,0.00
2018,11,06,01,22,0.00
2018,11,06,01,23,0.00
2018,11,06,01,24,0.00
2018,11,06,01,25,0.00
2018,11,06,01,26,0.00
2018,11,06,01,27,0.00
2018,11,06,01,28,0.00
2018,11,06,01,29,0.00
2018,11,06,01,30,0.00
2018,11,06,01,31,0.00
2018,11,06,01,32,0.00
2018,11,06,01,33,0.00
2018,11,06,01,34,0.00
2018,11,06,01,35,0.00
2018,11,06,01,36,0.00
2018,11,06,01,37,0.00
2018,11,06,01,38,0.00
2018,11,06,01,39,0.00
2018,11,06,01,40,0.00
2018,11,06,01,41,0.00
2018,11,06,01,42,0.00
2018,11,06,01,43,0.00
2018,11,06,01,44,0.00
2018,11,06,01,45,0.00
2018,11,06,01,46,0.00
2018,11,06,01,47,0.00
2018,11,06,01,48,0.00
2018,11,06,01,49,0.00
2018,11,06,01,50,0.00
2018,11,06,01,51,0.00
2018,11,06,01,52,0.00
2018,11,06,01,53,0.00
2018,11,06,01,54,0.00
2018,11,06,01,55,0.00
2018,11,06,01,56,0.00
2018,11,06,01,57,0.00
2018,11,06,01,58,0.00
2018,11,06,01,59,0.00
2018,11,06,02,00,0.00
2018,11,06,02,01,0.00
2018,11,06,02,02,0.00
2018,11,06,02,03,0.00
2018,11,06,02,04,0.00
2018,11,06,02,05,0.00
2018,11,06,02,06,0.00
2018,11,06,02,07,0.00
2018,11,06,02,08,0.00
2018,11,06,02,09,0.00
2018,11,06,02,10,0.00
2018,11,06,02,11,0.00
2018,11,06,02,12,0.00
2018,11,06,02,13,0.00
2018,11,06,02,14,0.00
2018,11,06,02,15,0.00
2018,11,06,02,16,0.00
2018,11,06,02,17,0.00
2018,11,06,02,18,0.00
2018,11,06,08,15,53.00
2018,11,06,08,16,56.20
2018,11,06,08,17,59.00
2018,11,06,08,18,63.00
2018,11,06,08,19,67.00
2018,11,06,08,20,69.60
2018,11,06,08,21,71.50
2018,11,06,08,22,73.70
2018,11,06,08,23,77.00
2018,11,06,08,24,77.00
2018,11,06,08,25,76.70
2018,11,06,08,26,75.00
2018,11,06,08,27,72.80
2018,11,06,08,28,70.50
2018,11,06,08,29,69.20
2018,11,06,08,30,64.70
2018,11,06,08,31,63.00
2018,11,06,08,32,62.60
2018,11,06,08,33,62.00
2018,11,06,08,34,62.00
2018,11,06,08,35,60.50
2018,11,06,08,36,60.00
2018,11,06,08,37,60.00
2018,11,06,08,38,60.00
2018,11,06,08,39,60.70
2018,11,06,08,40,62.50
2018,11,06,08,41,67.00
2018,11,06,08,42,69.20
2018,11,06,08,43,69.90
2018,11,06,08,44,74.30
2018,11,06,08,45,76.00
2018,11,06,08,46,76.00
2018,11,06,08,47,76.50
2018,11,06,08,48,77.00
2018,11,06,08,49,78.50
2018,11,06,08,50,80.70
2018,11,06,08,51,83.00
2018,11,06,08,52,83.20
2018,11,06,08,53,84.70
2018,11,06,08,54,87.00
2018,11,06,08,55,89.90
2018,11,06,08,56,92.60
2018,11,06,08,57,96.40
2018,11,06,08,58,98.60
2018,11,06,08,59,102.50
2018,11,06,09,00,104.40
2018,11,06,09,01,107.00
2018,11,06,09,02,111.60
2018,11,06,09,03,113.80
2018,11,06,09,04,117.40
2018,11,06,09,05,121.30
2018,11,06,09,06,124.00
2018,11,06,09,07,127.00
2018,11,06,09,08,127.00
2018,11,06,09,09,125.80
2018,11,06,09,10,125.00
2018,11,06,09,11,125.00
2018,11,06,09,12,124.70
2018,11,06,09,13,123.50
2018,11,06,09,14,126.20
2018,11,06,09,15,131.00
2018,11,06,09,16,137.20
2018,11,06,09,17,142.90
2018,11,06,09,18,147.40
2018,11,06,09,19,149.40
2018,11,06,09,20,153.50
2018,11,06,09,21,155.40
2018,11,06,09,22,158.00
2018,11,06,09,23,161.80
2018,11,06,09,24,169.00
2018,11,06,09,25,169.30
2018,11,06,09,26,168.80
2018,11,06,09,27,166.50
2018,11,06,09,28,163.00
2018,11,06,09,29,161.00
2018,11,06,09,30,153.20
2018,11,06,09,31,141.20
2018,11,06,09,32,133.10
2018,11,06,09,33,128.00
2018,11,06,09,34,127.70
2018,11,06,09,35,127.00
2018,11,06,09,36,127.00
2018,11,06,09,37,127.60
2018,11,06,09,38,127.20
2018,11,06,09,39,127.00
2018,11,06,09,40,125.00
2018,11,06,09,41,125.00
2018,11,06,09,42,125.00
2018,11,06,09,43,125.00
2018,11,06,09,44,125.00
2018,11,06,09,45,125.00
2018,11,06,09,46,125.00
2018,11,06,09,47,122.70
2018,11,06,09,48,120.80
2018,11,06,09,49,118.50
2018,11,06,09,50,115.00
2018,11,06,09,51,114.00
2018,11,06,09,52,114.00
2018,11,06,09,53,114.00
2018,11,06,09,54,118.20
2018,11,06,09,55,120.20
2018,11,06,09,56,123.10
2018,11,06,09,57,130.50
2018,11,06,09,58,138.80
2018,11,06,09,59,151.80
2018,11,06,10,00,160.90
2018,11,06,10,01,169.70
2018,11,06,10,02,177.80
2018,11,06,10,03,185.80
2018,11,06,10,04,194.90
2018,11,06,10,05,205.50
2018,11,06,10,06,212.20
2018,11,06,10,07,217.20
2018,11,06,10,08,221.30
2018,11,06,10,09,222.50
2018,11,06,10,10,220.60
2018,11,06,10,11,224.30
2018,11,06,10,12,244.60
2018,11,06,10,13,253.50
2018,11,06,10,14,233.40
2018,11,06,10,15,205.60
2018,11,06,10,16,191.20
2018,11,06,10,17,184.20
2018,11,06,10,18,181.00
2018,11,06,10,19,173.80
2018,11,06,10,20,169.00
2018,11,06,10,21,171.60
2018,11,06,10,22,174.50
2018,11,06,10,23,181.80
2018,11,06,10,24,190.70
2018,11,06,10,25,201.50
2018,11,06,10,26,197.40
2018,11,06,10,27,187.00
2018,11,06,10,28,183.40
2018,11,06,10,29,178.70
2018,11,06,10,30,175.00
2018,11,06,10,31,170.90
2018,11,06,10,32,163.50
2018,11,06,10,33,158.00
2018,11,06,10,34,149.00
2018,11,06,10,35,141.50
2018,11,06,10,36,133.90
2018,11,06,10,37,126.20
2018,11,06,10,38,119.00
2018,11,06,10,39,114.50
2018,11,06,10,40,110.60
2018,11,06,10,41,107.50
2018,11,06,10,42,105.30
2018,11,06,10,43,105.00
2018,11,06,10,44,105.50
2018,11,06,10,45,107.00
2018,11,06,10,46,106.00
2018,11,06,10,47,104.40
2018,11,06,10,48,104.00
2018,11,06,10,49,104.00
2018,11,06,10,50,99.60
2018,11,06,10,51,96.00
2018,11,06,10,52,92.30
2018,11,06,10,53,90.50
2018,11,06,10,54,87.60
2018,11,06,10,55,86.00
2018,11,06,10,56,84.30
2018,11,06,10,57,82.80
2018,11,06,10,58,81.50
2018,11,06,10,59,83.00
2018,11,06,11,00,83.00
2018,11,06,11,01,83.00
2018,11,06,11,02,81.50
2018,11,06,11,03,79.30
2018,11,06,11,04,79.60
2018,11,06,11,05,84.20
2018,11,06,11,06,89.20
2018,11,06,11,07,92.00
2018,11,06,11,08,93.00
2018,11,06,11,09,91.50
2018,11,06,11,10,91.00
2018,11,06,11,11,91.00
2018,11,06,11,12,91.50
2018,11,06,11,13,93.00
2018,11,06,11,14,94.00
2018,11,06,11,15,95.00
2018,11,06,11,16,93.50
2018,11,06,11,17,94.70
2018,11,06,11,18,100.70
2018,11,06,11,19,105.50
2018,11,06,11,20,105.90
2018,11,06,11,21,102.00
2018,11,06,11,22,100.00
2018,11,06,11,23,101.50
2018,11,06,11,24,104.60
2018,11,06,11,25,111.50
2018,11,06,11,26,117.00
2018,11,06,11,27,121.10
2018,11,06,11,28,123.00
2018,11,06,11,29,121.70
2018,11,06,11,30,121.00
2018,11,06,11,31,121.00
2018,11,06,11,32,121.50
2018,11,06,11,33,125.50
2018,11,06,11,34,127.30
2018,11,06,11,35,130.00
2018,11,06,11,36,133.80
2018,11,06,11,37,138.00
2018,11,06,11,38,141.60
2018,11,06,11,39,144.00
2018,11,06,11,40,143.50
2018,11,06,11,41,142.00
2018,11,06,11,42,141.50
2018,11,06,11,43,139.80
2018,11,06,11,44,137.50
2018,11,06,11,45,134.40
2018,11,06,11,46,129.70
2018,11,06,11,47,126.50
2018,11,06,11,48,125.00
2018,11,06,11,49,124.00
2018,11,06,11,50,121.10
2018,11,06,11,51,117.00
2018,11,06,11,52,114.30
2018,11,06,11,53,112.80
2018,11,06,11,54,111.50
2018,11,06,11,55,112.30
2018,11,06,11,56,111.00
2018,11,06,11,57,111.00
2018,11,06,11,58,108.00
2018,11,06,11,59,105.30
2018,11,06,12,00,105.20
2018,11,06,12,01,106.50
2018,11,06,12,02,104.60
2018,11,06,12,03,103.00
2018,11,06,12,04,99.60
2018,11,06,12,05,97.20
2018,11,06,12,06,97.00
2018,11,06,12,07,95.00
2018,11,06,12,08,95.00
2018,11,06,12,09,95.00
2018,11,06,12,10,96.00
2018,11,06,12,11,97.70
2018,11,06,12,12,98.00
2018,11,06,12,13,99.70
2018,11,06,12,14,102.20
2018,11,06,12,15,104.20
2018,11,06,12,16,105.00
2018,11,06,12,17,106.00
2018,11,06,12,18,109.40
2018,11,06,12,19,114.80
2018,11,06,12,20,120.20
2018,11,06,12,21,131.10
2018,11,06,12,22,144.50
2018,11,06,12,23,159.00
2018,11,06,12,24,167.10
2018,11,06,12,25,169.00
2018,11,06,12,26,167.50
2018,11,06,12,27,163.60
2018,11,06,12,28,164.90
2018,11,06,12,29,170.00
2018,11,06,12,30,153.10
2018,11,06,12,31,147.00
2018,11,06,12,32,154.40
2018,11,06,12,33,174.20
2018,11,06,12,34,179.00
2018,11,06,12,35,228.10
2018,11,06,12,36,505.20
2018,11,06,12,37,503.00
2018,11,06,12,38,503.00
2018,11,06,12,39,486.80
2018,11,06,12,40,467.00
2018,11,06,12,41,455.50
2018,11,06,12,42,443.60
2018,11,06,12,43,435.00
2018,11,06,12,44,431.60
2018,11,06,12,45,429.00
2018,11,06,12,46,425.00
2018,11,06,12,47,424.00
2018,11,06,12,48,422.30
2018,11,06,12,49,420.80
2018,11,06,12,50,423.80
2018,11,06,12,51,420.00
2018,11,06,12,52,419.00
2018,11,06,12,53,416.20
2018,11,06,12,54,406.00
2018,11,06,12,55,407.20
2018,11,06,12,56,412.10
2018,11,06,12,57,422.50
2018,11,06,12,58,425.00
2018,11,06,12,59,430.50
2018,11,06,13,00,434.00
2018,11,06,13,01,223.20
2018,11,06,13,02,111.00
2018,11,06,13,03,107.70
2018,11,06,13,04,115.80
2018,11,06,13,05,123.70
2018,11,06,13,06,132.50
2018,11,06,13,07,142.90
2018,11,06,13,08,153.50
2018,11,06,13,09,161.10
2018,11,06,13,10,182.40
2018,11,06,13,11,151.00
2018,11,06,13,12,147.40
2018,11,06,13,13,139.50
2018,11,06,13,14,135.20
2018,11,06,13,15,132.50
2018,11,06,13,16,134.60
2018,11,06,13,17,199.70
2018,11,06,13,18,152.10
2018,11,06,13,19,155.00
2018,11,06,13,20,155.00
2018,11,06,13,21,155.00
2018,11,06,13,22,199.20
2018,11,06,13,23,142.60
2018,11,06,13,24,130.00
2018,11,06,13,25,127.00
2018,11,06,13,26,118.00
2018,11,06,13,27,118.00
2018,11,06,13,28,104.20
2018,11,06,13,29,88.20
2018,11,06,13,30,81.80
2018,11,06,13,31,75.70
2018,11,06,13,32,78.00
2018,11,06,13,33,90.00
2018,11,06,13,34,220.00
2018,11,06,13,35,350.00
2018,11,06,13,36,350.00
2018,11,06,13,37,267.50
2018,11,06,13,38,226.60
2018,11,06,13,39,77.50
2018,11,06,13,40,80.60
2018,11,06,13,41,85.40
2018,11,06,13,42,86.80
2018,11,06,13,43,84.50
2018,11,06,13,44,90.30
2018,11,06,13,45,104.10
2018,11,06,13,46,118.80
2018,11,06,13,47,130.20
2018,11,06,13,48,139.50
2018,11,06,13,49,145.30
2018,11,06,13,50,143.00
2018,11,06,13,51,139.40
2018,11,06,13,52,134.60
2018,11,06,13,53,131.50
2018,11,06,13,54,128.00
2018,11,06,13,55,122.80
2018,11,06,13,56,119.10
2018,11,06,13,57,115.00
2018,11,06,13,58,109.80
2018,11,06,13,59,104.90
2018,11,06,14,00,104.00
2018,11,06,14,01,101.70
2018,11,06,14,02,96.40
2018,11,06,14,03,92.00
2018,11,06,14,04,88.50
2018,11,06,14,05,84.60
2018,11,06,14,06,84.60
2018,11,06,14,07,89.30
2018,11,06,14,08,94.40
2018,11,06,14,09,98.40
2018,11,06,14,10,101.20
2018,11,06,14,11,104.20
2018,11,06,14,12,110.10
2018,11,06,14,13,118.80
2018,11,06,14,14,125.00
2018,11,06,14,15,134.40
2018,11,06,14,16,140.50
2018,11,06,14,17,145.60
2018,11,06,14,18,148.80
2018,11,06,14,19,150.80
2018,11,06,14,20,150.60
2018,11,06,14,21,146.20
2018,11,06,14,22,141.00
2018,11,06,14,23,141.00
2018,11,06,14,24,141.00
2018,11,06,14,25,190.50
2018,11,06,14,26,206.00
2018,11,06,14,27,196.50
2018,11,06,14,28,121.80
2018,11,06,14,29,139.00
2018,11,06,14,30,166.00
2018,11,06,14,31,193.00
2018,11,06,14,32,110.00
2018,11,06,14,33,81.30
2018,11,06,14,34,76.60
2018,11,06,14,35,74.00
2018,11,06,14,36,75.10
2018,11,06,14,37,80.50
2018,11,06,14,38,84.00
2018,11,06,14,39,85.50
2018,11,06,14,40,90.20
2018,11,06,14,41,112.90
2018,11,06,14,42,104.50
2018,11,06,14,43,96.30
2018,11,06,14,44,96.00
2018,11,06,14,45,97.60
2018,11,06,14,46,98.00
2018,11,06,14,47,101.60
2018,11,06,14,48,130.20
2018,11,06,14,49,290.00
2018,11,06,14,50,253.60
2018,11,06,14,51,164.00
2018,11,06,14,52,156.90
2018,11,06,14,53,175.50
2018,11,06,14,54,135.30
2018,11,06,14,55,113.50
2018,11,06,14,56,107.20
2018,11,06,14,57,99.60
2018,11,06,14,58,90.50
2018,11,06,14,59,79.50
2018,11,06,15,00,71.50
2018,11,06,15,01,71.70
2018,11,06,15,02,69.40
2018,11,06,15,03,73.00
2018,11,06,15,04,76.40
2018,11,06,15,05,79.00
2018,11,06,15,06,82.80
2018,11,06,15,07,111.00
2018,11,06,15,08,108.90
2018,11,06,15,09,90.20
2018,11,06,15,10,83.00
2018,11,06,15,11,93.50
2018,11,06,15,12,97.00
2018,11,06,15,13,121.90
2018,11,06,15,14,147.00
2018,11,06,15,15,91.10
2018,11,06,15,16,75.80
2018,11,06,15,17,101.30
2018,11,06,15,18,138.80
2018,11,06,15,19,106.00
2018,11,06,15,20,69.30
2018,11,06,15,21,69.80
2018,11,06,15,22,65.50
2018,11,06,15,23,65.00
2018,11,06,15,24,65.00
2018,11,06,15,25,65.70
2018,11,06,15,26,66.10
2018,11,06,15,27,63.20
2018,11,06,15,28,59.00
2018,11,06,15,29,54.60
2018,11,06,15,30,50.60
2018,11,06,15,31,46.20
2018,11,06,15,32,42.40
2018,11,06,15,33,40.00
2018,11,06,15,34,39.30
2018,11,06,15,35,39.80
2018,11,06,15,36,43.60
2018,11,06,15,37,43.60
2018,11,06,15,38,40.00
2018,11,06,15,39,39.60
2018,11,06,15,40,39.00
2018,11,06,15,41,37.70
2018,11,06,15,42,37.00
2018,11,06,15,43,37.00
2018,11,06,15,44,39.00
2018,11,06,15,45,39.00
2018,11,06,15,46,39.40
2018,11,06,15,47,40.00
2018,11,06,15,48,41.20
2018,11,06,15,49,43.50
2018,11,06,15,50,44.00
2018,11,06,15,51,42.00
2018,11,06,15,52,42.00
2018,11,06,15,53,42.00
2018,11,06,15,54,41.00
2018,11,06,15,55,39.40
2018,11,06,15,56,37.50
2018,11,06,15,57,35.30
2018,11,06,15,58,33.00
2018,11,06,15,59,33.00
2018,11,06,16,00,33.00
2018,11,06,16,01,33.00
2018,11,06,16,02,33.00
2018,11,06,16,03,33.00
2018,11,06,16,04,32.10
2018,11,06,16,05,32.00
2018,11,06,16,06,31.60
2018,11,06,16,07,29.30
2018,11,06,16,08,28.00
2018,11,06,16,09,26.70
2018,11,06,16,10,26.00
2018,11,06,16,11,26.00
2018,11,06,16,12,24.70
2018,11,06,16,13,22.50
2018,11,06,16,14,20.20
2018,11,06,16,15,18.50
2018,11,06,16,16,18.00
2018,11,06,16,17,16.50
2018,11,06,16,18,16.00
2018,11,06,16,19,14.00
2018,11,06,16,20,14.00
2018,11,06,16,21,14.00
2018,11,06,16,22,14.00
2018,11,06,16,23,12.70
2018,11,06,16,24,12.00
2018,11,06,16,25,12.00
2018,11,06,16,26,12.00
2018,11,06,16,27,12.00
2018,11,06,16,28,11.60
2018,11,06,16,29,11.00
2018,11,06,16,30,11.00
2018,11,06,16,31,11.00
2018,11,06,16,32,9.20
2018,11,06,16,33,9.00
2018,11,06,16,34,9.00
2018,11,06,16,35,9.00
2018,11,06,16,36,7.90
2018,11,06,16,37,7.00
2018,11,06,16,38,7.00
2018,11,06,16,39,7.00
2018,11,06,16,40,7.00
2018,11,06,16,41,6.50
2018,11,06,16,42,5.00
2018,11,06,16,43,5.00
2018,11,06,16,44,5.00
2018,11,06,16,45,5.00
2018,11,06,16,46,5.00
2018,11,06,16,47,4.20
2018,11,06,16,48,0.00
2018,11,06,16,49,0.00
2018,11,06,16,50,0.00
2018,11,06,16,51,0.00
2018,11,06,16,52,0.00
2018,11,06,16,53,0.00
2018,11,06,16,54,0.00
2018,11,06,16,55,0.00
2018,11,06,16,56,0.00
2018,11,06,16,57,0.00
2018,11,06,16,58,0.00
2018,11,06,16,59,0.00
2018,11,06,17,00,0.00
2018,11,06,17,01,0.00
2018,11,06,17,02,0.00
2018,11,06,17,03,0.00
2018,11,06,17,04,0.00
2018,11,06,17,05,0.00
2018,11,06,17,06,0.00
2018,11,06,17,07,0.00
2018,11,06,17,08,0.00
2018,11,06,17,09,0.00
2018,11,06,17,10,0.00
2018,11,06,17,11,0.00
2018,11,06,17,12,0.00
2018,11,06,17,13,0.00
2018,11,06,17,14,0.00
2018,11,06,17,15,0.00
2018,11,06,17,16,0.00
2018,11,06,17,17,0.00
2018,11,06,17,18,0.00
2018,11,06,17,19,0.00
2018,11,06,17,20,0.00
2018,11,06,17,21,0.00
2018,11,06,17,22,0.00
2018,11,06,17,23,0.00
2018,11,06,17,24,0.00
2018,11,06,17,25,0.00
2018,11,06,17,26,0.00
2018,11,06,17,27,0.00
2018,11,06,17,28,0.00
2018,11,06,17,29,0.00
2018,11,06,17,30,0.00
2018,11,06,17,31,0.00
2018,11,06,17,32,0.00
2018,11,06,17,33,0.00
2018,11,06,17,34,0.00
2018,11,06,17,35,0.00
2018,11,06,17,36,0.00
2018,11,06,17,37,0.00
2018,11,06,17,38,0.00
2018,11,06,17,39,0.00
2018,11,06,17,40,0.00
2018,11,06,17,41,0.00
2018,11,06,17,42,0.00
2018,11,06,17,43,0.00
2018,11,06,17,44,0.00
2018,11,06,17,45,0.00
2018,11,06,17,46,0.00
2018,11,06,17,47,0.00
2018,11,06,17,48,0.00
2018,11,06,17,49,0.00
2018,11,06,17,50,0.00
2018,11,06,17,51,0.00
2018,11,06,17,52,0.00
2018,11,06,17,53,0.00
2018,11,06,17,54,0.00
2018,11,06,17,55,0.00
2018,11,06,17,56,0.00
2018,11,06,17,57,0.00
2018,11,06,17,58,0.00
2018,11,06,17,59,0.00
2018,11,06,18,00,0.00
2018,11,06,18,01,0.00
2018,11,06,18,02,0.00
2018,11,06,18,03,0.00
2018,11,06,18,04,0.00
2018,11,06,18,05,0.00
2018,11,06,18,06,0.00
2018,11,06,18,07,0.00
2018,11,06,18,08,0.00
2018,11,06,18,09,0.00
2018,11,06,18,10,0.00
2018,11,06,18,11,0.00
2018,11,06,18,12,0.00
2018,11,06,18,13,0.00
2018,11,06,18,14,0.00
2018,11,06,18,15,0.00
2018,11,06,18,16,0.00
2018,11,06,18,17,0.00
2018,11,06,18,18,0.00
2018,11,06,18,19,0.00
2018,11,06,18,20,0.00
2018,11,06,18,21,0.00
2018,11,06,18,22,0.00
2018,11,06,18,23,0.00
2018,11,06,18,24,0.00
2018,11,06,18,25,0.00
2018,11,06,18,26,0.00
2018,11,06,18,27,0.00
2018,11,06,18,28,0.00
2018,11,06,18,29,0.00
2018,11,06,18,30,0.00
2018,11,06,18,31,0.00
2018,11,06,18,32,0.00
2018,11,06,18,33,0.00
2018,11,06,18,34,0.00
2018,11,06,18,35,0.00
2018,11,06,18,36,0.00
2018,11,06,18,37,0.00
2018,11,06,18,38,0.00
2018,11,06,18,39,0.00
2018,11,06,18,40,0.00
2018,11,06,18,41,0.00
2018,11,06,18,42,0.00
2018,11,06,18,43,0.00
2018,11,06,18,44,0.00
2018,11,06,18,45,0.00
2018,11,06,18,46,0.00
2018,11,06,18,47,0.00
2018,11,06,18,48,0.00
2018,11,06,18,49,0.00
2018,11,06,18,50,0.00
2018,11,06,18,51,0.00
2018,11,06,18,52,0.00
2018,11,06,18,53,0.00
2018,11,06,18,54,0.00
2018,11,06,18,55,0.00
2018,11,06,18,56,0.00
2018,11,06,18,57,0.00
2018,11,06,18,58,0.00
2018,11,06,18,59,0.00
2018,11,06,19,00,0.00
2018,11,06,19,01,0.00
2018,11,06,19,02,0.00
2018,11,06,19,03,0.00
2018,11,06,19,04,0.00
2018,11,06,19,05,0.00
2018,11,06,19,06,0.00
2018,11,06,19,07,0.00
2018,11,06,19,08,0.00
2018,11,06,19,09,0.00
2018,11,06,19,10,0.00
2018,11,06,19,11,0.00
2018,11,06,19,12,0.00
2018,11,06,19,13,0.00
2018,11,06,19,14,0.00
2018,11,06,19,15,0.00
2018,11,06,19,16,0.00
2018,11,06,19,17,0.00
2018,11,06,19,18,0.00
2018,11,06,19,19,0.00
2018,11,06,19,20,0.00
2018,11,06,19,21,0.00
2018,11,06,19,22,0.00
2018,11,06,19,23,0.00
2018,11,06,19,24,0.00
2018,11,06,19,25,0.00
2018,11,06,19,26,0.00
2018,11,06,19,27,0.00
2018,11,06,19,28,0.00
2018,11,06,19,29,0.00
2018,11,06,19,30,0.00
2018,11,06,19,31,0.00
2018,11,06,19,32,0.00
2018,11,06,19,33,0.00
2018,11,06,19,34,0.00
2018,11,06,19,35,0.00
2018,11,06,19,36,0.00
2018,11,06,19,37,0.00
2018,11,06,19,38,0.00
2018,11,06,19,39,0.00
2018,11,06,19,40,0.00
2018,11,06,19,41,0.00
2018,11,06,19,42,0.00
2018,11,06,19,43,0.00
2018,11,06,19,44,0.00
2018,11,06,19,45,0.00
2018,11,06,19,46,0.00
2018,11,06,19,47,0.00
2018,11,06,19,48,0.00
2018,11,06,19,49,0.00
2018,11,06,19,50,0.00
2018,11,06,19,51,0.00
2018,11,06,19,52,0.00
2018,11,06,19,53,0.00
2018,11,06,19,54,0.00
2018,11,06,19,55,0.00
2018,11,06,19,56,0.00
2018,11,06,19,57,0.00
2018,11,06,19,58,0.00
2018,11,06,19,59,0.00
2018,11,06,20,00,0.00
2018,11,06,20,01,0.00
2018,11,06,20,02,0.00
2018,11,06,20,03,0.00
2018,11,06,20,04,0.00
2018,11,06,20,05,0.00
2018,11,06,20,06,0.00
2018,11,06,20,07,0.00
2018,11,06,20,08,0.00
2018,11,06,20,09,0.00
2018,11,06,20,10,0.00
2018,11,06,20,11,0.00
2018,11,06,20,12,0.00
2018,11,06,20,13,0.00
2018,11,06,20,14,0.00
2018,11,06,20,15,0.00
2018,11,06,20,16,0.00
2018,11,06,20,17,0.00
2018,11,06,20,18,0.00
2018,11,06,20,19,0.00
2018,11,06,20,20,0.00
2018,11,06,20,21,0.00
2018,11,06,20,22,0.00
2018,11,06,20,23,0.00
2018,11,06,20,24,0.00
2018,11,06,20,25,0.00
2018,11,06,20,26,0.00
2018,11,06,20,27,0.00
2018,11,06,20,28,0.00
2018,11,06,20,29,0.00
2018,11,06,20,30,0.00
2018,11,06,20,31,0.00
2018,11,06,20,32,0.00
2018,11,06,20,33,0.00
2018,11,06,20,34,0.00
2018,11,06,20,35,0.00
2018,11,06,20,36,0.00
2018,11,06,20,37,0.00
2018,11,06,20,38,0.00
2018,11,06,20,39,0.00
2018,11,06,20,40,0.00
2018,11,06,20,41,0.00
2018,11,06,20,42,0.00
2018,11,06,20,43,0.00
2018,11,06,20,44,0.00
2018,11,06,20,45,0.00
2018,11,06,20,46,0.00
2018,11,06,20,47,0.00
2018,11,06,20,48,0.00
2018,11,06,20,49,0.00
2018,11,06,20,50,0.00
2018,11,06,20,51,0.00
2018,11,06,20,52,0.00
2018,11,06,20,53,0.00
2018,11,06,20,54,0.00
2018,11,06,20,55,0.00
2018,11,06,20,56,0.00
2018,11,06,20,57,0.00
2018,11,06,20,58,0.00
2018,11,06,20,59,0.00
2018,11,06,21,00,0.00
2018,11,06,21,01,0.00
2018,11,06,21,02,0.00
2018,11,06,21,03,0.00
2018,11,06,21,04,0.00
2018,11,06,21,05,0.00
2018,11,06,21,06,0.00
2018,11,06,21,07,0.00
2018,11,06,21,08,0.00
2018,11,06,21,09,0.00
2018,11,06,21,10,0.00
2018,11,06,21,11,0.00
2018,11,06,21,12,0.00
2018,11,06,21,13,0.00
2018,11,06,21,14,0.00
2018,11,06,21,15,0.00
2018,11,06,21,16,0.00
2018,11,06,21,17,0.00
2018,11,06,21,18,0.00
2018,11,06,21,19,0.00
2018,11,06,21,20,0.00
2018,11,06,21,21,0.00
2018,11,06,21,22,0.00
2018,11,06,21,23,0.00
2018,11,06,21,24,0.00
2018,11,06,21,25,0.00
2018,11,06,21,26,0.00
2018,11,06,21,27,0.00
2018,11,06,21,28,0.00
2018,11,06,21,29,0.00
2018,11,06,21,30,0.00
2018,11,06,21,31,0.00
2018,11,06,21,32,0.00
2018,11,06,21,33,0.00
2018,11,06,21,34,0.00
2018,11,06,21,35,0.00
2018,11,06,21,36,0.00
2018,11,06,21,37,0.00
2018,11,06,21,38,0.00
2018,11,06,21,39,0.00
2018,11,06,21,40,0.00
2018,11,06,21,41,0.00
2018,11,06,21,42,0.00
2018,11,06,21,43,0.00
2018,11,06,21,44,0.00
2018,11,06,21,45,0.00
2018,11,06,21,46,0.00
2018,11,06,21,47,0.00
2018,11,06,21,48,0.00
2018,11,06,21,49,0.00
2018,11,06,21,50,0.00
2018,11,06,21,51,0.00
2018,11,06,21,52,0.00
2018,11,06,21,53,0.00
2018,11,06,21,54,0.00
2018,11,06,21,55,0.00
2018,11,06,21,56,0.00
2018,11,06,21,57,0.00
2018,11,06,21,58,0.00
2018,11,06,21,59,0.00
2018,11,06,22,00,0.00
2018,11,06,22,01,0.00
2018,11,06,22,02,0.00
2018,11,06,22,03,0.00
2018,11,06,22,04,0.00
2018,11,06,22,05,0.00
2018,11,06,22,06,0.00
2018,11,06,22,07,0.00
2018,11,06,22,08,0.00
2018,11,06,22,09,0.00
2018,11,06,22,10,0.00
2018,11,06,22,11,0.00
2018,11,06,22,12,0.00
2018,11,06,22,13,0.00
2018,11,06,22,14,0.00
2018,11,06,22,15,0.00
2018,11,06,22,16,0.00
2018,11,06,22,17,0.00
2018,11,06,22,18,0.00
2018,11,06,22,19,0.00
2018,11,06,22,20,0.00
2018,11,06,22,21,0.00
2018,11,06,22,22,0.00
2018,11,06,22,23,0.00
2018,11,06,22,24,0.00
2018,11,06,22,25,0.00
2018,11,06,22,26,0.00
2018,11,06,22,27,0.00
2018,11,06,22,28,0.00
2018,11,06,22,29,0.00
2018,11,06,22,30,0.00
2018,11,06,22,31,0.00
2018,11,06,22,32,0.00
2018,11,06,22,33,0.00
2018,11,06,22,34,0.00
2018,11,06,22,35,0.00
2018,11,06,22,36,0.00
2018,11,06,22,37,0.00
2018,11,06,22,38,0.00
2018,11,06,22,39,0.00
2018,11,06,22,40,0.00
2018,11,06,22,41,0.00
2018,11,06,22,42,0.00
2018,11,06,22,43,0.00
2018,11,06,22,44,0.00
2018,11,06,22,45,0.00
2018,11,06,22,46,0.00
2018,11,06,22,47,0.00
2018,11,06,22,48,0.00
2018,11,06,22,49,0.00
2018,11,06,22,50,0.00
2018,11,06,22,51,0.00
2018,11,06,22,52,0.00
2018,11,06,22,53,0.00
2018,11,06,22,54,0.00
2018,11,06,22,55,0.00
2018,11,06,22,56,0.00
2018,11,06,22,57,0.00
2018,11,06,22,58,0.00
2018,11,06,22,59,0.00
2018,11,06,23,00,0.00
2018,11,06,23,01,0.00
2018,11,06,23,02,0.00
2018,11,06,23,03,0.00
2018,11,06,23,04,0.00
2018,11,06,23,05,0.00
2018,11,06,23,06,0.00
2018,11,06,23,07,0.00
2018,11,06,23,08,0.00
2018,11,06,23,09,0.00
2018,11,06,23,10,0.00
2018,11,06,23,11,0.00
2018,11,06,23,12,0.00
2018,11,06,23,13,0.00
2018,11,06,23,14,0.00
2018,11,06,23,15,0.00
2018,11,06,23,16,0.00
2018,11,06,23,17,0.00
2018,11,06,23,18,0.00
2018,11,06,23,19,0.00
2018,11,06,23,20,0.00
2018,11,06,23,21,0.00
2018,11,06,23,22,0.00
2018,11,06,23,23,0.00
2018,11,06,23,24,0.00
2018,11,06,23,25,0.00
2018,11,06,23,26,0.00